Skip Navigation Links
NOAA logo - Click to go to the NOAA homepage
NOAA's National Weather Service
Alaska Aviation Weather Unit
  NWS logo - Click to go to the NWS homepage
Left Navbar Graphic     00 AKDT = 08 GMT

   
NOAA is celebrating 200 years of science, service, and stewardship. Visit the NOAA 200th celebration Web site to learn more.
USA.gov is the U.S. Government's official Web portal to all Federal, state and local government Web resources and services.
Facebook
NWS on Facebook

Important Change Regarding the AAWU Web Presence

 

Over the last several months, the AAWU has been working to navigate its webpages to a nationally supported server. Security, as well as other needs, have necessitated the change.  We have been given an extension for the site changeover while we diligently work at addressing feedback received. As of July 14, 2017, aawu.arh.noaa.gov will be discontinued. The new AAWU web address is weather.gov/aawu. It is now live and will run in-parallel with the old site until it is discontinued on July 14, 2017. Please continue to send any feedback or questions regarding the new webpages to nws.ar.aawu.webauthors@noaa.gov.  Thank you for your patience during this time of transition.
AAWU Home :: Display TAF Add Bookmark
TAF PAOM 240540Z 2406/2506  01016KT P6SM FEW050 SCT080 BKN200=

4314
FTAK31 PAFA 240540
TAFABT
TAF

METAR PAOM 240253Z 02022KT 10SM FEW055 OVC080 08/01 A2959= METAR PAOM 240353Z 02015G24KT 10SM FEW047 BKN080 BKN110 BKN200 09/01 A2958= METAR PAOM 240453Z 36010KT 10SM FEW048 SCT080 SCT110 BKN200 07/02 A2958= METAR PAOM 240553Z 01014KT 10SM BKN049 BKN095 BKN200 07/01 A2958= METAR PAOM 240653Z 33007KT 10SM BKN048 OVC095 07/02 A2959= METAR PAOM 240753Z AUTO 36014KT 10SM FEW055 07/02 A2958=
 Alaska TAF Map

NOAA's National Weather Service
Alaska Aviation Weather Unit
6930 Sand Lake Road
Anchorage, AK 99502-1845
Disclaimer
Credits
Glossary
Privacy Policy
About Us
Career Opportunities
Contact AAWU Internet Services Site last modified: April, 17th 2012